Weather reports worldwide

Advertisment
Berlin-Schönefeld, Germany (10385): temperature & dewpoint: 15.06.2018 23:00:00 - 21.06.2018 23:00:00 (CEST)Berlin-Schönefeld, Germany (10385): temperature 5cm & temperature -5cm: 15.06.2018 23:00:00 - 21.06.2018 23:00:00 (CEST)Berlin-Schönefeld, Germany (10385): temperature -20cm & temperature -100cm: 15.06.2018 23:00:00 - 21.06.2018 23:00:00 (CEST)Berlin-Schönefeld, Germany (10385): wind speed & gusts: 15.06.2018 23:00:00 - 21.06.2018 23:00:00 (CEST)Berlin-Schönefeld, Germany (10385): wind direction: 15.06.2018 23:00:00 - 21.06.2018 23:00:00 (CEST)Berlin-Schönefeld, Germany (10385): reduced air pressure: 15.06.2018 23:00:00 - 21.06.2018 23:00:00 (CEST)Berlin-Schönefeld, Germany (10385): visibility: 15.06.2018 23:00:00 - 21.06.2018 23:00:00 (CEST)Berlin-Schönefeld, Germany (10385): sunshine duration: 15.06.2018 23:00:00 - 21.06.2018 23:00:00 (CEST)Berlin-Schönefeld, Germany (10385): precipitation: 15.06.2018 23:00:00 - 21.06.2018 23:00:00 (CEST)
Date & Time tt [°C] td [°C] tt 5cm [°C] tt -5cm [°C] tt -20cm [°C] tt -100cm [°C] ff [km/h] ff [kn] fx [km/h] fx [kn] dd ppp [hPa] vv [km] sd [min] rr [mm]
21.06.2018 23:00:00 13,0 5,5 12,0 16,1 20,3 18,4 20 11 51 27 W 1016,8 60 0 0,0
21.06.2018 22:00:00 13,9 4,9 12,8 16,9 20,7 18,4 24 13 53 29 WNW 1016,1 10 0 0,0
21.06.2018 21:00:00 15,1 4,3 14,7 17,8 21,0 18,4 28 15 49 27 WNW 1015,2 60 31 0,0
21.06.2018 20:00:00 15,9 5,3 15,8 18,6 21,4 18,4 32 17 64 35 WNW 1014,4 50 33 0,0
21.06.2018 19:00:00 16,4 5,1 16,3 18,5 21,8 18,4 39 21 72 39 WNW 1013,7 50 43 0,0
21.06.2018 18:00:00 17,0 6,5 17,9 18,8 22,3 18,4 42 23 55 30 W 1013,0 50 55 0,0
21.06.2018 17:00:00 15,0 8,7 16,6 20,1 22,7 18,4 32 17 55 30 WNW 1013,2 50 3 0,0
21.06.2018 16:00:00 14,9 12,6 16,6 22,5 23,1 18,4 21 12 36 19 WSW 1012,3 60 6 1,1
21.06.2018 15:00:00 13,9 11,8 13,3 24,0 23,2 18,4 29 16 66 35 WNW 1012,1 10 3 0,5
21.06.2018 14:00:00 19,5 10,8 21,9 26,4 23,1 18,4 47 25 78 42 WNW 1009,9 45 24 0,0
21.06.2018 13:00:00 27,6 11,8 30,1 28,3 22,6 18,4 41 22 64 35 WSW 1006,5 10 39 0,0
21.06.2018 12:00:00 28,1 13,5 32,5 27,3 22,1 18,4 28 15 42 23 WSW 1007,1 45 35 0,0
21.06.2018 11:00:00 26,2 14,2 29,9 26,4 21,6 18,4 20 11 38 21 WSW 1008,1 45 48 0,0
21.06.2018 10:00:00 25,3 14,2 29,4 24,5 21,2 18,4 16 9 34 18 SW 1009,4 10 26 0,0
21.06.2018 09:00:00 23,8 14,7 27,0 22,8 21,0 18,4 18 10 28 15 WSW 1010,6 40 53 0,0
21.06.2018 08:00:00 22,9 14,7 24,8 20,9 20,9 18,4 8 4 16 9 SSW 1011,2 10 58 0,0
21.06.2018 07:00:00 20,1 14,7 20,3 19,5 21,1 18,4 12 7 18 10 SW 1011,9 50 60 0,0
21.06.2018 06:00:00 18,1 14,6 16,4 18,9 21,3 18,4 8 5 11 6 SW 1012,4 50 27 0,0
21.06.2018 05:00:00 16,8 14,1 12,7 19,2 21,7 18,4 6 3 8 4 SW 1012,9 50 0 0,0
21.06.2018 04:00:00 18,0 14,4 15,5 19,7 22,0 18,3 4 2 8 4 SSW 1013,5 50 0 0,0
21.06.2018 03:00:00 17,5 14,8 13,9 20,2 22,3 18,3 4 2 8 4 SSE 1014,1 10 0 0,0
21.06.2018 02:00:00 18,1 14,4 16,7 20,7 22,6 18,3 5 3 5 3 S 1014,9 50 0 0,0
21.06.2018 01:00:00 19,7 14,5 14,3 21,2 23,0 18,3 5 3 11 6 W 1015,3 10 0 0,0
21.06.2018 00:00:00 21,6 14,2 16,4 22,0 23,4 18,3 6 3 8 4 W 1015,7 50 0 0,0
20.06.2018 23:00:00 21,6 14,4 15,9 23,1 23,7 18,3 8 4 10 6 WNW 1015,9 50 0 0,0
20.06.2018 22:00:00 25,0 14,2 23,1 24,4 23,9 18,3 8 4 14 8 NNW 1016,0 10 0 0,0
20.06.2018 21:00:00 26,6 14,1 25,3 25,6 24,1 18,4 10 6 15 8 NW 1015,9 50 59 0,0
20.06.2018 20:00:00 27,7 13,9 27,8 26,7 24,1 18,4 13 7 24 13 WSW 1016,1 10 56 0,0
20.06.2018 19:00:00 28,2 13,7 29,8 27,5 24,1 18,4 19 10 26 14 WSW 1016,6 50 59 0,0
20.06.2018 18:00:00 27,5 13,6 29,0 28,0 24,0 18,4 15 8 31 17 WSW 1017,5 10 41 0,0
20.06.2018 17:00:00 27,9 13,7 32,2 29,6 23,6 18,4 17 9 29 16 SW 1018,4 45 33 0,0
20.06.2018 16:00:00 27,8 14,2 32,7 29,5 23,2 18,4 11 6 27 15 WSW 1019,2 10 19 0,0
20.06.2018 15:00:00 26,2 14,2 31,2 29,1 22,7 18,4 11 6 24 13 SSW 1020,0 10 12 0,0
20.06.2018 14:00:00 25,0 14,2 28,8 28,3 22,1 18,4 12 6 26 14 SW 1020,7 45 10 0,0
20.06.2018 13:00:00 24,6 15,3 31,7 27,3 21,5 18,4 8 4 18 10 SSW 1021,4 10 11 0,0
20.06.2018 12:00:00 24,0 15,7 28,5 26,2 20,9 18,4 5 3 21 11 SW 1022,1 10 1 0,0
20.06.2018 11:00:00 22,3 15,2 27,8 24,1 20,5 18,4 9 5 21 11 SSW 1022,8 10 0 0,0
20.06.2018 10:00:00 20,7 14,4 25,0 21,9 20,3 18,4 13 7 21 11 SSE 1023,2 10 0 0,0
20.06.2018 09:00:00 19,2 12,8 21,6 20,5 20,2 18,4 8 4 12 6 ESE 1023,5 50 0 0,0
20.06.2018 08:00:00 18,3 13,2 19,7 19,7 20,2 18,4 8 4 11 6 ESE 1023,6 45 0 0,0
20.06.2018 07:00:00 17,8 13,5 18,7 19,0 20,3 18,3 4 2 8 4 ENE 1023,7 45 0 0,0
20.06.2018 06:00:00 16,4 14,6 16,3 18,4 20,5 18,3 4 2 5 3 - 1023,5 10 0 0,0
20.06.2018 05:00:00 14,6 13,6 13,9 18,1 20,8 18,3 4 2 9 5 SSW 1023,6 10 0 0,0
20.06.2018 04:00:00 14,5 13,4 11,9 18,4 21,1 18,3 6 3 8 4 SSE 1023,2 45 0 0,0
20.06.2018 03:00:00 16,4 14,4 13,2 19,1 21,4 18,3 4 2 9 5 N 1023,2 50 0 0,0
20.06.2018 02:00:00 16,0 13,6 13,4 19,3 21,7 18,3 8 4 9 5 W 1023,2 50 0 0,0
20.06.2018 01:00:00 17,1 13,8 14,9 19,9 22,0 18,3 7 4 9 5 WSW 1022,9 50 0 0,0
20.06.2018 00:00:00 18,5 13,9 16,3 20,6 22,3 18,3 11 6 13 7 W 1022,8 10 0 0,0
19.06.2018 23:00:00 19,1 13,8 16,6 21,4 22,6 18,3 9 5 13 7 WSW 1022,5 10 0 0,0
19.06.2018 22:00:00 20,8 13,9 18,8 22,4 22,8 18,3 13 7 21 11 W 1022,1 10 0 0,0
19.06.2018 21:00:00 22,5 13,8 21,7 23,4 23,0 18,3 15 8 24 13 W 1021,5 10 50 0,0
19.06.2018 20:00:00 23,2 13,7 23,2 24,3 23,1 18,3 18 10 26 14 W 1021,4 10 35 0,0
19.06.2018 19:00:00 23,6 14,0 24,4 24,6 23,2 18,3 17 9 29 16 WNW 1021,5 50 4 0,0
19.06.2018 18:00:00 23,6 14,0 23,8 24,8 23,2 18,3 21 11 31 17 WNW 1021,4 50 0 0,0
19.06.2018 17:00:00 23,7 13,0 23,8 25,7 23,2 18,3 21 11 34 18 W 1021,2 50 1 0,0
19.06.2018 16:00:00 24,6 12,0 27,3 26,7 23,0 18,3 26 14 36 20 WSW 1020,8 45 7 0,0
19.06.2018 15:00:00 24,6 12,2 27,6 26,7 22,9 18,3 21 11 33 18 W 1020,9 45 0 0,0
19.06.2018 14:00:00 23,8 12,2 25,8 26,9 22,6 18,3 22 12 35 19 WNW 1021,0 10 0 0,0
19.06.2018 13:00:00 23,9 12,1 27,2 27,4 22,1 18,3 19 10 33 18 WNW 1020,9 45 2 0,0
19.06.2018 12:00:00 23,8 11,2 28,3 27,6 21,5 18,3 16 9 38 21 W 1020,7 45 52 0,0
19.06.2018 11:00:00 22,5 12,4 27,1 25,6 21,0 18,3 15 8 29 16 WSW 1020,8 10 58 0,0
19.06.2018 10:00:00 21,1 12,4 24,7 23,5 20,7 18,3 16 9 34 18 W 1020,7 45 39 0,0
19.06.2018 09:00:00 20,1 13,1 21,8 21,2 20,6 18,3 25 13 37 20 W 1020,6 45 36 0,0
19.06.2018 08:00:00 19,4 13,5 19,9 20,0 20,6 18,3 16 9 27 14 W 1020,3 10 0 0,0
19.06.2018 07:00:00 18,1 13,9 18,2 19,5 20,8 18,3 11 6 16 9 W 1020,2 10 0 0,0
19.06.2018 06:00:00 17,7 12,9 17,4 19,2 21,0 18,3 13 7 16 9 SW 1019,7 50 1 0,0
19.06.2018 05:00:00 17,0 12,8 14,7 19,2 21,2 18,3 10 6 13 7 SW 1019,4 50 0 0,0
19.06.2018 04:00:00 18,0 12,6 16,7 19,8 21,4 18,3 11 6 13 7 SW 1019,5 55 0 0,0
19.06.2018 03:00:00 18,8 12,3 17,9 20,0 21,7 18,3 11 6 14 8 SW 1019,4 55 0 0,0
19.06.2018 02:00:00 18,6 12,3 17,2 20,1 21,9 18,3 12 6 15 8 WSW 1019,4 55 0 0,0
19.06.2018 01:00:00 18,2 12,3 16,3 20,6 22,2 18,3 10 6 15 8 SSW 1019,4 55 0 0,0
19.06.2018 00:00:00 18,2 12,5 16,1 21,2 22,5 18,3 8 4 11 6 S 1019,7 55 0 0,0
18.06.2018 23:00:00 20,5 12,4 18,5 21,8 22,8 18,3 9 5 11 6 WSW 1019,7 55 0 0,0
18.06.2018 22:00:00 21,2 12,2 19,5 22,9 23,1 18,3 9 5 18 10 W 1019,3 55 1 0,0
18.06.2018 21:00:00 22,7 11,7 22,5 23,8 23,2 18,3 11 6 21 11 W 1018,7 55 11 0,0
18.06.2018 20:00:00 23,0 10,6 22,9 24,6 23,3 18,3 8 4 19 10 SSW 1018,7 10 0 0,0
18.06.2018 19:00:00 23,2 9,8 24,2 25,3 23,4 18,3 13 7 24 13 SW 1018,9 10 1 0,0
18.06.2018 18:00:00 23,0 9,5 23,4 26,2 23,4 18,3 11 6 32 17 SW 1019,2 10 2 0,0
18.06.2018 17:00:00 23,7 9,2 28,0 27,7 23,1 18,3 19 11 34 18 WSW 1019,1 50 34 0,0
18.06.2018 16:00:00 23,1 9,2 26,6 27,3 22,9 18,3 18 10 34 18 W 1019,5 50 11 0,0
18.06.2018 15:00:00 22,8 9,4 29,5 27,2 22,5 18,3 11 6 26 14 W 1019,6 50 13 0,0
18.06.2018 14:00:00 22,4 9,9 25,2 28,9 21,8 18,3 13 7 29 16 WSW 1019,8 10 51 0,0
18.06.2018 13:00:00 22,2 9,7 28,4 26,8 21,3 18,3 15 8 31 17 W 1020,1 10 38 0,0
18.06.2018 12:00:00 21,0 11,3 25,9 24,0 20,9 18,3 15 8 27 15 SW 1020,1 10 7 0,0
18.06.2018 11:00:00 20,1 11,2 23,8 22,9 20,6 18,3 11 6 18 10 WSW 1020,1 30 2 0,0
18.06.2018 10:00:00 19,2 11,2 21,9 21,4 20,4 18,3 11 6 15 8 WSW 1020,2 10 3 0,0
18.06.2018 09:00:00 17,5 11,7 19,6 19,7 20,4 18,2 11 6 15 8 WSW 1019,8 10 0 0,0
18.06.2018 08:00:00 16,7 11,2 17,6 19,2 20,5 18,2 9 5 11 6 WSW 1019,5 10 8 0,0
18.06.2018 07:00:00 16,5 10,5 17,9 18,0 20,7 18,2 4 2 8 4 - 1019,0 10 60 0,0
18.06.2018 06:00:00 13,3 9,6 12,5 17,3 21,0 18,2 8 4 13 7 W 1018,9 10 26 0,0
18.06.2018 05:00:00 12,5 8,8 8,5 17,6 21,4 18,2 5 3 11 6 WSW 1018,8 10 0 0,0
18.06.2018 04:00:00 12,7 8,7 10,0 18,2 21,8 18,2 8 4 14 8 WSW 1018,7 10 0 0,0
18.06.2018 03:00:00 15,1 9,0 11,2 18,8 22,3 18,2 5 3 15 8 WSW 1018,4 10 0 0,0
18.06.2018 02:00:00 14,3 8,7 12,0 19,5 22,7 18,2 5 3 15 8 WSW 1018,4 10 0 0,0
18.06.2018 01:00:00 16,2 8,6 12,3 20,3 23,2 18,1 9 5 11 6 W 1018,2 50 0 0,0
18.06.2018 00:00:00 18,4 8,0 12,9 21,3 23,6 18,1 7 4 13 7 WNW 1017,8 55 0 0,0
17.06.2018 23:00:00 20,2 7,5 18,2 22,3 24,0 18,1 10 5 16 9 NW 1017,3 55 0 0,0
17.06.2018 22:00:00 21,2 7,8 19,3 23,4 24,4 18,1 11 6 29 16 WNW 1017,1 10 0 0,0
17.06.2018 21:00:00 22,2 7,4 21,5 24,4 24,8 18,1 24 13 29 16 WNW 1016,5 10 0 0,0
17.06.2018 20:00:00 23,3 7,6 22,7 25,7 25,1 18,1 22 12 35 19 WNW 1015,8 10 29 0,0
17.06.2018 19:00:00 23,9 8,8 23,9 26,8 25,3 18,1 21 11 36 20 WNW 1015,4 55 16 0,0
17.06.2018 18:00:00 25,4 10,0 26,6 28,2 25,4 18,1 29 16 42 23 WNW 1014,8 10 59 0,0
17.06.2018 17:00:00 25,5 11,1 27,8 29,7 25,3 18,1 29 15 38 21 WNW 1014,6 50 14 0,0
17.06.2018 16:00:00 24,8 12,7 27,6 30,8 25,1 18,1 18 10 36 20 W 1014,5 50 32 0,0
17.06.2018 15:00:00 25,6 13,4 30,8 31,9 24,7 18,1 23 12 36 20 WNW 1014,4 50 53 0,0
17.06.2018 14:00:00 25,0 13,4 30,2 31,4 24,2 18,1 21 11 36 20 WNW 1014,3 50 50 0,0
17.06.2018 13:00:00 25,4 14,2 31,5 30,8 23,7 18,1 15 8 29 16 W 1014,3 10 50 0,0
17.06.2018 12:00:00 24,8 14,1 28,9 30,6 23,0 18,0 21 11 34 18 W 1014,5 10 58 0,0
17.06.2018 11:00:00 23,9 13,9 26,9 29,8 22,1 18,0 18 10 29 16 W 1014,7 10 60 0,0
17.06.2018 10:00:00 23,9 13,4 26,8 27,3 21,5 18,0 18 10 26 14 WNW 1014,4 10 39 0,0
17.06.2018 09:00:00 22,2 13,1 24,8 24,2 21,1 18,0 11 6 21 11 W 1014,1 10 60 0,0
17.06.2018 08:00:00 21,2 12,9 22,2 21,4 21,1 18,0 11 6 17 9 SW 1014,1 40 57 0,0
17.06.2018 07:00:00 19,5 13,8 19,4 19,4 21,3 18,0 4 2 13 7 - 1013,7 10 58 0,0
17.06.2018 06:00:00 17,7 13,1 14,9 18,6 21,6 18,0 8 5 9 5 SE 1013,5 25 19 0,0
17.06.2018 05:00:00 17,4 12,2 12,9 18,8 22,1 18,0 6 4 16 9 SE 1013,7 30 0 0,0
17.06.2018 04:00:00 18,1 12,2 13,6 19,8 22,5 18,0 5 3 14 8 SSE 1013,9 10 0 0,0
17.06.2018 03:00:00 19,4 12,3 17,6 20,9 22,9 17,9 10 6 18 10 SSE 1014,1 30 0 0,0
17.06.2018 02:00:00 20,4 12,0 19,2 21,5 23,2 17,9 11 6 16 9 SE 1014,1 10 0 0,0
17.06.2018 01:00:00 20,4 12,2 19,4 22,0 23,7 17,9 8 4 18 10 SSE 1014,3 10 0 0,0
17.06.2018 00:00:00 20,4 12,7 19,4 22,6 24,1 17,9 10 5 15 8 S 1014,2 40 0 0,0
16.06.2018 23:00:00 20,8 12,4 19,2 23,4 24,6 17,9 10 6 16 9 SSE 1014,2 40 0 0,0
16.06.2018 22:00:00 22,6 12,2 21,2 24,8 25,0 17,9 8 4 18 10 SE 1014,0 10 0 0,0
16.06.2018 21:00:00 23,5 12,1 21,5 26,1 25,5 17,9 4 2 16 9 SE 1013,8 10 0 0,0
16.06.2018 20:00:00 24,3 12,5 23,9 28,0 25,7 17,9 5 3 22 12 ESE 1013,8 10 14 0,0
16.06.2018 19:00:00 25,6 12,9 27,3 30,0 25,8 17,9 11 6 21 11 ESE 1013,9 10 10 0,0
16.06.2018 18:00:00 25,4 11,5 27,0 31,1 25,8 17,9 11 6 26 14 SE 1014,0 55 0 0,0
16.06.2018 17:00:00 25,6 12,2 28,1 33,3 25,4 18,0 13 7 28 15 SE 1014,5 50 37 0,0
16.06.2018 16:00:00 26,2 12,8 32,9 34,2 24,7 18,0 13 7 30 16 SE 1014,8 10 41 0,0
16.06.2018 15:00:00 25,7 12,5 32,9 33,9 24,0 18,0 10 5 22 12 SSE 1015,2 50 35 0,0
16.06.2018 14:00:00 24,6 12,3 28,8 31,8 23,2 18,0 8 4 24 13 ESE 1015,9 10 11 0,0
16.06.2018 13:00:00 25,4 11,9 32,3 32,9 22,2 18,0 11 6 21 11 SSE 1016,2 50 47 0,0
16.06.2018 12:00:00 24,0 12,7 30,9 30,2 21,2 18,0 9 5 18 10 - 1016,7 10 41 0,0
16.06.2018 11:00:00 23,0 12,2 27,6 28,2 20,3 18,0 9 5 16 9 ESE 1016,9 10 48 0,0
16.06.2018 10:00:00 22,3 14,5 26,3 24,6 19,8 18,0 8 4 16 9 SSE 1017,2 10 24 0,0
16.06.2018 09:00:00 20,5 14,9 23,3 21,2 19,5 18,0 3 2 9 5 ESE 1017,3 35 0 0,0
16.06.2018 08:00:00 19,5 15,1 21,2 19,7 19,4 18,0 5 3 8 4 SE 1017,1 35 0 0,0
16.06.2018 07:00:00 17,6 14,6 18,4 18,5 19,5 18,0 5 3 8 4 ESE 1017,1 30 0 0,0
16.06.2018 06:00:00 16,7 14,1 16,2 17,9 19,7 18,0 3 2 8 4 ESE 1017,4 30 0 0,0
16.06.2018 05:00:00 16,5 14,2 15,6 17,9 19,9 18,0 5 3 9 5 SSE 1017,4 30 0 0,0
16.06.2018 04:00:00 17,1 14,3 15,3 18,3 20,1 18,0 4 2 8 4 E 1017,7 30 0 0,0
16.06.2018 03:00:00 17,3 13,9 16,1 18,6 20,3 18,0 6 3 11 6 SE 1017,6 40 0 0,0
16.06.2018 02:00:00 17,8 13,4 16,7 18,9 20,5 18,0 7 4 11 6 SSE 1017,5 40 0 0,0
16.06.2018 01:00:00 17,6 14,0 16,6 19,2 20,8 18,0 7 4 11 6 SE 1017,5 40 0 0,0
16.06.2018 00:00:00 18,5 13,8 17,0 19,6 21,0 18,0 5 3 9 5 SSE 1017,3 40 0 0,0
15.06.2018 23:00:00 18,6 13,8 17,4 20,0 21,3 18,0 6 4 8 4 ESE 1017,2 50 0 0,0

tt = temperature
td = dewpoint
tt 5cm = temperature 5cm
tt -5cm = temperature -5cm
tt -20cm = temperature -20cm
tt -100cm = temperature -100cm
ff = wind speed
fx = gusts
dd = wind direction
ppp = reduced air pressure
vv = visibility
sd = sunshine duration
rr = precipitation

Next stations